Lid_Strength_Index
9 12 14 12 11 11 11 13 14 12 11 10 11 12 13 11 11 12 11 9 10 9 7 6 5 3 3 3 1 2 3 4 5 6 7 6 6 6 6 6 6 5 5 6
11 14 13 11 10 11 12 13 14 13 12 12 14 14 12 12 12 12 11 11 10 10 9 9 7 6 5 3 3 2 1 2 3 3 4 4 4 4 5 5 6 5 5 6
13 14 12 12 11 13 13 14 14 13 13 13 14 16 14 13 12 12 12 11 11 11 10 9 8 8 7 7 6 4 2 2 2 3 3 4 4 6 6 6 6 6 6 6
13 11 12 12 13 13 15 12 12 14 14 18 14 21 16 15 14 13 13 13 12 11 10 9 9 9 8 8 7 6 5 5 4 3 4 4 5 6 5 6 5 5 7 8
15 13 13 14 14 13 14 12 13 13 15 16 17 17 16 15 16 15 14 12 11 11 10 10 10 9 8 8 8 7 7 6 5 4 4 4 4 4 4 4 5 5 7 8
13 11 13 13 12 12 12 13 14 15 16 20 18 19 18 17 16 15 14 12 12 12 11 10 9 9 9 8 7 7 7 6 5 5 5 5 5 5 5 5 5 5 6 8
14 14 13 13 14 12 13 15 19 20 21 21 17 19 18 15 14 14 14 13 12 12 12 12 11 10 9 8 7 7 7 7 6 6 5 5 5 5 6 5 5 5 5 6
17 18 15 14 14 15 15 16 19 22 21 21 18 21 18 14 13 13 12 12 12 13 12 11 10 10 9 8 8 8 8 8 7 7 7 6 6 6 5 4 5 5 5 5
16 17 14 13 13 14 15 17 15 19 20 21 19 18 15 14 14 13 13 12 13 12 12 11 10 9 9 9 9 9 9 9 8 8 8 7 7 7 7 6 6 5 5 5
15 18 15 13 13 12 14 13 17 17 22 23 22 21 18 15 14 13 12 12 12 11 11 10 10 10 10 11 11 11 10 10 10 10 10 9 8 7 7 6 6 6 5 4
13 14 16 13 14 15 15 15 15 15 17 20 22 21 14 14 13 13 12 12 12 12 12 11 11 11 12 12 12 12 11 11 10 9 9 9 8 8 7 7 6 6 6 5
13 14 17 16 14 14 14 14 14 18 20 18 19 20 13 12 12 11 11 10 10 10 10 10 10 11 12 12 12 12 11 11 11 10 10 10 9 9 9 8 8 7 6 6
12 15 19 18 16 14 15 13 13 14 15 18 20 19 12 11 10 10 10 9 10 11 11 11 11 12 13 12 12 12 12 12 11 11 10 10 10 10 9 9 9 8 8 7
10 14 16 19 17 14 16 14 13 13 17 16 16 16 13 11 11 10 10 11 11 11 11 11 12 12 12 12 12 12 12 11 11 10 11 11 10 9 9 9 9 8 8 8
11 18 16 15 14 14 15 15 13 13 13 16 14 14 12 12 11 10 11 11 11 12 12 11 12 12 12 12 12 12 12 11 11 11 11 11 10 10 9 10 9 9 9 8
11 18 15 19 15 15 17 14 14 13 13 13 13 14 12 12 11 11 11 11 12 12 12 11 11 12 12 12 12 12 12 12 11 12 12 11 11 10 11 10 10 9 9 9
14 17 18 20 18 18 20 16 15 14 13 13 15 13 12 13 12 12 12 12 12 12 12 11 11 12 11 11 12 12 12 11 12 12 11 11 11 11 11 11 11 10 10 10
17 16 15 23 22 25 16 16 15 14 13 12 12 12 12 12 12 11 11 11 12 12 12 11 11 11 11 11 12 11 11 11 12 12 12 11 12 12 12 12 12 11 11 11
14 15 20 24 26 19 17 17 17 17 16 12 11 11 12 12 13 13 11 11 12 11 11 11 11 11 11 12 12 12 12 12 13 12 12 12 12 13 13 12 12 11 11 11
15 13 18 25 27 27 18 17 14 15 20 13 12 11 11 14 16 15 12 12 11 11 11 11 11 11 11 11 12 12 13 13 13 12 12 12 12 13 12 12 12 11 11 10
17 17 21 23 25 21 15 15 14 23 18 14 12 12 13 14 14 13 12 12 11 11 11 11 12 12 12 11 12 13 13 12 12 13 12 12 12 12 12 12 12 11 11 10
18 18 18 20 26 24 15 16 18 16 16 15 13 13 13 14 13 13 13 13 12 12 12 12 13 13 12 12 13 13 13 12 13 13 13 13 12 12 12 12 12 11 11 11
20 17 19 17 18 16 15 17 15 15 16 15 15 14 14 14 14 13 13 13 13 13 13 13 13 13 13 13 13 13 12 13 13 14 14 13 13 12 12 12 12 12 11 11
20 21 20 18 17 15 15 15 15 15 16 15 14 14 14 15 14 14 14 14 14 14 13 13 14 14 14 13 13 13 13 13 15 15 13 13 13 13 13 12 11 11 11 11
19 18 20 20 17 17 17 14 13 14 15 15 14 15 15 15 15 15 15 14 14 14 13 13 14 14 14 14 14 14 13 15 14 14 13 13 13 14 14 12 11 11 10 10
19 19 18 19 16 16 15 15 14 15 14 14 16 16 16 15 15 15 15 15 15 14 14 14 14 15 14 14 14 14 17 16 15 14 14 14 14 14 13 13 12 9 8 8